Time,TemperatureF,DewpointF,PressureIn,WindDirection,WindDirectionDegrees,WindSpeedMPH,WindSpeedGustMPH,Humidity,HourlyPrecipIn,Conditions,Clouds,dailyrainin,SoftwareType,DateUTC
2013-06-14 00:01:00,70.0,58.0,-100.00,North,-999,-999.0,-999.0,65,-99.99,,,-99.99,,2013-06-14 04:01:00,
2013-06-14 00:12:00,70.0,57.0,-100.00,North,-999,-999.0,-999.0,63,-99.99,,,-99.99,,2013-06-14 04:12:00,
2013-06-14 00:23:00,70.0,57.0,-100.00,North,-999,-999.0,-999.0,63,-99.99,,,-99.99,,2013-06-14 04:23:00,
2013-06-14 00:33:00,70.0,55.0,-100.00,North,-999,-999.0,-999.0,58,-99.99,,,-99.99,,2013-06-14 04:33:00,
2013-06-14 00:43:00,70.0,54.0,-100.00,North,-999,-999.0,-999.0,57,-99.99,,,-99.99,,2013-06-14 04:43:00,
2013-06-14 00:53:00,70.0,54.0,-100.00,North,-999,-999.0,-999.0,57,-99.99,,,-99.99,,2013-06-14 04:53:00,
2013-06-14 01:02:00,70.0,53.0,-100.00,North,-999,-999.0,-999.0,55,-99.99,,,-99.99,,2013-06-14 05:02:00,
2013-06-14 01:12:00,70.0,53.0,-100.00,North,-999,-999.0,-999.0,55,-99.99,,,-99.99,,2013-06-14 05:12:00,
2013-06-14 01:22:00,70.0,53.0,-100.00,North,-999,-999.0,-999.0,55,-99.99,,,-99.99,,2013-06-14 05:22:00,
2013-06-14 01:34:00,70.0,53.0,-100.00,North,-999,-999.0,-999.0,55,-99.99,,,-99.99,,2013-06-14 05:34:00,
2013-06-14 01:43:00,70.0,54.0,-100.00,North,-999,-999.0,-999.0,56,-99.99,,,-99.99,,2013-06-14 05:43:00,
2013-06-14 01:52:00,70.0,54.0,-100.00,North,-999,-999.0,-999.0,56,-99.99,,,-99.99,,2013-06-14 05:52:00,
2013-06-14 02:02:00,70.0,54.0,-100.00,North,-999,-999.0,-999.0,57,-99.99,,,-99.99,,2013-06-14 06:02:00,
2013-06-14 02:12:00,70.0,54.0,-100.00,North,-999,-999.0,-999.0,58,-99.99,,,-99.99,,2013-06-14 06:12:00,
2013-06-14 02:22:00,70.0,54.0,-100.00,North,-999,-999.0,-999.0,58,-99.99,,,-99.99,,2013-06-14 06:22:00,
2013-06-14 02:33:00,69.0,54.0,-100.00,North,-999,-999.0,-999.0,59,-99.99,,,-99.99,,2013-06-14 06:33:00,
2013-06-14 02:43:00,69.0,54.0,-100.00,North,-999,-999.0,-999.0,60,-99.99,,,-99.99,,2013-06-14 06:43:00,
2013-06-14 02:52:00,69.0,54.0,-100.00,North,-999,-999.0,-999.0,60,-99.99,,,-99.99,,2013-06-14 06:52:00,
2013-06-14 03:02:00,69.0,54.0,-100.00,North,-999,-999.0,-999.0,60,-99.99,,,-99.99,,2013-06-14 07:02:00,
2013-06-14 03:12:00,69.0,54.0,-100.00,North,-999,-999.0,-999.0,60,-99.99,,,-99.99,,2013-06-14 07:12:00,
2013-06-14 03:22:00,69.0,54.0,-100.00,North,-999,-999.0,-999.0,60,-99.99,,,-99.99,,2013-06-14 07:22:00,
2013-06-14 03:33:00,68.0,54.0,-100.00,North,-999,-999.0,-999.0,60,-99.99,,,-99.99,,2013-06-14 07:33:00,
2013-06-14 03:43:00,68.0,54.0,-100.00,North,-999,-999.0,-999.0,60,-99.99,,,-99.99,,2013-06-14 07:43:00,
2013-06-14 03:53:00,68.0,54.0,-100.00,North,-999,-999.0,-999.0,61,-99.99,,,-99.99,,2013-06-14 07:53:00,
2013-06-14 04:02:00,68.0,54.0,-100.00,North,-999,-999.0,-999.0,62,-99.99,,,-99.99,,2013-06-14 08:02:00,
2013-06-14 04:12:00,67.0,54.0,-100.00,North,-999,-999.0,-999.0,62,-99.99,,,-99.99,,2013-06-14 08:12:00,
2013-06-14 04:23:00,67.0,54.0,-100.00,North,-999,-999.0,-999.0,62,-99.99,,,-99.99,,2013-06-14 08:23:00,
2013-06-14 04:33:00,67.0,54.0,-100.00,North,-999,-999.0,-999.0,62,-99.99,,,-99.99,,2013-06-14 08:33:00,
2013-06-14 04:43:00,66.0,54.0,-100.00,North,-999,-999.0,-999.0,66,-99.99,,,-99.99,,2013-06-14 08:43:00,
2013-06-14 04:53:00,66.0,54.0,-100.00,North,-999,-999.0,-999.0,66,-99.99,,,-99.99,,2013-06-14 08:53:00,
2013-06-14 05:02:00,66.0,54.0,-100.00,North,-999,-999.0,-999.0,66,-99.99,,,-99.99,,2013-06-14 09:02:00,
2013-06-14 05:12:00,64.0,56.0,-100.00,North,-999,-999.0,-999.0,77,-99.99,,,-99.99,,2013-06-14 09:12:00,
2013-06-14 05:22:00,64.0,56.0,-100.00,North,-999,-999.0,-999.0,77,-99.99,,,-99.99,,2013-06-14 09:22:00,
2013-06-14 05:33:00,63.0,57.0,-100.00,North,-999,-999.0,-999.0,81,-99.99,,,-99.99,,2013-06-14 09:33:00,
2013-06-14 05:43:00,63.0,56.0,-100.00,North,-999,-999.0,-999.0,77,-99.99,,,-99.99,,2013-06-14 09:43:00,
2013-06-14 05:53:00,63.0,56.0,-100.00,North,-999,-999.0,-999.0,77,-99.99,,,-99.99,,2013-06-14 09:53:00,
2013-06-14 06:02:00,63.0,56.0,-100.00,North,-999,-999.0,-999.0,77,-99.99,,,-99.99,,2013-06-14 10:02:00,
2013-06-14 06:12:00,64.0,54.0,-100.00,North,-999,-999.0,-999.0,71,-99.99,,,-99.99,,2013-06-14 10:12:00,
2013-06-14 06:22:00,64.0,54.0,-100.00,North,-999,-999.0,-999.0,71,-99.99,,,-99.99,,2013-06-14 10:22:00,
2013-06-14 06:34:00,63.0,55.0,-100.00,North,-999,-999.0,-999.0,73,-99.99,,,-99.99,,2013-06-14 10:34:00,
2013-06-14 06:43:00,63.0,55.0,-100.00,North,-999,-999.0,-999.0,73,-99.99,,,-99.99,,2013-06-14 10:43:00,
2013-06-14 06:53:00,63.0,55.0,-100.00,North,-999,-999.0,-999.0,73,-99.99,,,-99.99,,2013-06-14 10:53:00,
2013-06-14 07:02:00,63.0,56.0,-100.00,North,-999,-999.0,-999.0,78,-99.99,,,-99.99,,2013-06-14 11:02:00,
2013-06-14 07:11:00,62.0,56.0,-100.00,North,-999,-999.0,-999.0,80,-99.99,,,-99.99,,2013-06-14 11:11:00,
2013-06-14 07:23:00,62.0,56.0,-100.00,North,-999,-999.0,-999.0,80,-99.99,,,-99.99,,2013-06-14 11:23:00,
2013-06-14 07:33:00,62.0,57.0,-100.00,North,-999,-999.0,-999.0,82,-99.99,,,-99.99,,2013-06-14 11:33:00,
2013-06-14 07:43:00,62.0,58.0,-100.00,North,-999,-999.0,-999.0,85,-99.99,,,-99.99,,2013-06-14 11:43:00,
2013-06-14 07:52:00,62.0,58.0,-100.00,North,-999,-999.0,-999.0,85,-99.99,,,-99.99,,2013-06-14 11:52:00,
2013-06-14 08:02:00,63.0,57.0,-100.00,North,-999,-999.0,-999.0,83,-99.99,,,-99.99,,2013-06-14 12:02:00,
2013-06-14 08:12:00,62.0,57.0,-100.00,North,-999,-999.0,-999.0,82,-99.99,,,-99.99,,2013-06-14 12:12:00,
2013-06-14 08:23:00,62.0,57.0,-100.00,North,-999,-999.0,-999.0,82,-99.99,,,-99.99,,2013-06-14 12:23:00,
2013-06-14 08:31:00,64.0,57.0,-100.00,North,-999,-999.0,-999.0,77,-99.99,,,-99.99,,2013-06-14 12:31:00,
2013-06-14 08:33:00,62.0,57.0,-100.00,North,-999,-999.0,-999.0,82,-99.99,,,-99.99,,2013-06-14 12:33:00,
2013-06-14 08:43:00,63.0,57.0,-100.00,North,-999,-999.0,-999.0,80,-99.99,,,-99.99,,2013-06-14 12:43:00,
2013-06-14 08:52:00,63.0,57.0,-100.00,North,-999,-999.0,-999.0,80,-99.99,,,-99.99,,2013-06-14 12:52:00,
2013-06-14 09:02:00,63.0,57.0,-100.00,North,-999,-999.0,-999.0,80,-99.99,,,-99.99,,2013-06-14 13:02:00,
2013-06-14 09:12:00,64.0,57.0,-100.00,North,-999,-999.0,-999.0,77,-99.99,,,-99.99,,2013-06-14 13:12:00,
2013-06-14 09:22:00,64.0,57.0,-100.00,North,-999,-999.0,-999.0,77,-99.99,,,-99.99,,2013-06-14 13:22:00,
2013-06-14 09:43:00,65.0,57.0,-100.00,North,-999,-999.0,-999.0,76,-99.99,,,-99.99,,2013-06-14 13:43:00,
2013-06-14 09:53:00,65.0,57.0,-100.00,North,-999,-999.0,-999.0,76,-99.99,,,-99.99,,2013-06-14 13:53:00,
2013-06-14 10:02:00,66.0,56.0,-100.00,North,-999,-999.0,-999.0,70,-99.99,,,-99.99,,2013-06-14 14:02:00,
2013-06-14 10:12:00,67.0,56.0,-100.00,North,-999,-999.0,-999.0,68,-99.99,,,-99.99,,2013-06-14 14:12:00,
2013-06-14 10:22:00,67.0,56.0,-100.00,North,-999,-999.0,-999.0,68,-99.99,,,-99.99,,2013-06-14 14:22:00,
2013-06-14 10:34:00,67.0,55.0,-100.00,North,-999,-999.0,-999.0,65,-99.99,,,-99.99,,2013-06-14 14:34:00,
2013-06-14 10:43:00,67.0,52.0,-100.00,North,-999,-999.0,-999.0,59,-99.99,,,-99.99,,2013-06-14 14:43:00,
2013-06-14 10:52:00,67.0,52.0,-100.00,North,-999,-999.0,-999.0,59,-99.99,,,-99.99,,2013-06-14 14:52:00,
2013-06-14 11:02:00,68.0,51.0,-100.00,North,-999,-999.0,-999.0,55,-99.99,,,-99.99,,2013-06-14 15:02:00,
2013-06-14 11:12:00,68.0,51.0,-100.00,North,-999,-999.0,-999.0,54,-99.99,,,-99.99,,2013-06-14 15:12:00,
2013-06-14 11:23:00,68.0,51.0,-100.00,North,-999,-999.0,-999.0,54,-99.99,,,-99.99,,2013-06-14 15:23:00,
2013-06-14 11:33:00,68.0,48.0,-100.00,North,-999,-999.0,-999.0,49,-99.99,,,-99.99,,2013-06-14 15:33:00,
2013-06-14 11:44:00,68.0,48.0,-100.00,North,-999,-999.0,-999.0,49,-99.99,,,-99.99,,2013-06-14 15:44:00,
2013-06-14 11:53:00,68.0,48.0,-100.00,North,-999,-999.0,-999.0,49,-99.99,,,-99.99,,2013-06-14 15:53:00,
2013-06-14 12:02:00,68.0,48.0,-100.00,North,-999,-999.0,-999.0,49,-99.99,,,-99.99,,2013-06-14 16:02:00,
2013-06-14 12:11:00,68.0,48.0,-100.00,North,-999,-999.0,-999.0,48,-99.99,,,-99.99,,2013-06-14 16:11:00,
2013-06-14 12:23:00,68.0,47.0,-100.00,North,-999,-999.0,-999.0,48,-99.99,,,-99.99,,2013-06-14 16:23:00,
2013-06-14 12:33:00,68.0,47.0,-100.00,North,-999,-999.0,-999.0,48,-99.99,,,-99.99,,2013-06-14 16:33:00,
2013-06-14 12:43:00,69.0,47.0,-100.00,North,-999,-999.0,-999.0,44,-99.99,,,-99.99,,2013-06-14 16:43:00,
2013-06-14 12:53:00,69.0,47.0,-100.00,North,-999,-999.0,-999.0,44,-99.99,,,-99.99,,2013-06-14 16:53:00,
2013-06-14 13:02:00,70.0,47.0,-100.00,North,-999,-999.0,-999.0,43,-99.99,,,-99.99,,2013-06-14 17:02:00,
2013-06-14 13:12:00,71.0,48.0,-100.00,North,-999,-999.0,-999.0,45,-99.99,,,-99.99,,2013-06-14 17:12:00,
2013-06-14 13:23:00,71.0,48.0,-100.00,North,-999,-999.0,-999.0,45,-99.99,,,-99.99,,2013-06-14 17:23:00,
2013-06-14 13:34:00,72.0,49.0,-100.00,North,-999,-999.0,-999.0,45,-99.99,,,-99.99,,2013-06-14 17:34:00,
2013-06-14 13:43:00,71.0,49.0,-100.00,North,-999,-999.0,-999.0,46,-99.99,,,-99.99,,2013-06-14 17:43:00,
2013-06-14 13:54:00,71.0,49.0,-100.00,North,-999,-999.0,-999.0,46,-99.99,,,-99.99,,2013-06-14 17:54:00,
2013-06-14 14:02:00,72.0,50.0,-100.00,North,-999,-999.0,-999.0,45,-99.99,,,-99.99,,2013-06-14 18:02:00,
2013-06-14 14:11:00,72.0,50.0,-100.00,North,-999,-999.0,-999.0,45,-99.99,,,-99.99,,2013-06-14 18:11:00,
2013-06-14 14:22:00,73.0,50.0,-100.00,North,-999,-999.0,-999.0,44,-99.99,,,-99.99,,2013-06-14 18:22:00,
2013-06-14 14:33:00,72.0,50.0,-100.00,North,-999,-999.0,-999.0,45,-99.99,,,-99.99,,2013-06-14 18:33:00,
2013-06-14 14:43:00,74.0,49.0,-100.00,North,-999,-999.0,-999.0,40,-99.99,,,-99.99,,2013-06-14 18:43:00,
2013-06-14 14:52:00,74.0,49.0,-100.00,North,-999,-999.0,-999.0,40,-99.99,,,-99.99,,2013-06-14 18:52:00,
2013-06-14 15:01:00,74.0,50.0,-100.00,North,-999,-999.0,-999.0,43,-99.99,,,-99.99,,2013-06-14 19:01:00,
2013-06-14 15:11:00,74.0,50.0,-100.00,North,-999,-999.0,-999.0,43,-99.99,,,-99.99,,2013-06-14 19:11:00,
2013-06-14 15:22:00,74.0,50.0,-100.00,North,-999,-999.0,-999.0,43,-99.99,,,-99.99,,2013-06-14 19:22:00,
2013-06-14 15:33:00,74.0,50.0,-100.00,North,-999,-999.0,-999.0,43,-99.99,,,-99.99,,2013-06-14 19:33:00,
2013-06-14 15:43:00,75.0,51.0,-100.00,North,-999,-999.0,-999.0,42,-99.99,,,-99.99,,2013-06-14 19:43:00,
2013-06-14 15:53:00,75.0,51.0,-100.00,North,-999,-999.0,-999.0,42,-99.99,,,-99.99,,2013-06-14 19:53:00,
2013-06-14 16:02:00,76.0,51.0,-100.00,North,-999,-999.0,-999.0,42,-99.99,,,-99.99,,2013-06-14 20:02:00,
2013-06-14 16:11:00,76.0,51.0,-100.00,North,-999,-999.0,-999.0,42,-99.99,,,-99.99,,2013-06-14 20:11:00,
2013-06-14 16:22:00,76.0,51.0,-100.00,North,-999,-999.0,-999.0,42,-99.99,,,-99.99,,2013-06-14 20:22:00,
2013-06-14 16:33:00,76.0,51.0,-100.00,North,-999,-999.0,-999.0,42,-99.99,,,-99.99,,2013-06-14 20:33:00,
2013-06-14 16:43:00,77.0,51.0,-100.00,North,-999,-999.0,-999.0,40,-99.99,,,-99.99,,2013-06-14 20:43:00,
2013-06-14 16:53:00,77.0,51.0,-100.00,North,-999,-999.0,-999.0,40,-99.99,,,-99.99,,2013-06-14 20:53:00,
2013-06-14 17:02:00,77.0,51.0,-100.00,North,-999,-999.0,-999.0,40,-99.99,,,-99.99,,2013-06-14 21:02:00,
2013-06-14 17:12:00,77.0,51.0,-100.00,North,-999,-999.0,-999.0,40,-99.99,,,-99.99,,2013-06-14 21:12:00,
2013-06-14 17:22:00,78.0,51.0,-100.00,North,-999,-999.0,-999.0,38,-99.99,,,-99.99,,2013-06-14 21:22:00,
2013-06-14 17:34:00,77.0,49.0,-100.00,North,-999,-999.0,-999.0,38,-99.99,,,-99.99,,2013-06-14 21:34:00,
2013-06-14 17:43:00,77.0,48.0,-100.00,North,-999,-999.0,-999.0,36,-99.99,,,-99.99,,2013-06-14 21:43:00,
2013-06-14 17:52:00,77.0,48.0,-100.00,North,-999,-999.0,-999.0,36,-99.99,,,-99.99,,2013-06-14 21:52:00,
2013-06-14 18:02:00,78.0,50.0,-100.00,North,-999,-999.0,-999.0,37,-99.99,,,-99.99,,2013-06-14 22:02:00,
2013-06-14 18:12:00,78.0,48.0,-100.00,North,-999,-999.0,-999.0,35,-99.99,,,-99.99,,2013-06-14 22:12:00,
2013-06-14 18:22:00,78.0,48.0,-100.00,North,-999,-999.0,-999.0,35,-99.99,,,-99.99,,2013-06-14 22:22:00,
2013-06-14 18:33:00,78.0,48.0,-100.00,North,-999,-999.0,-999.0,35,-99.99,,,-99.99,,2013-06-14 22:33:00,
2013-06-14 18:43:00,78.0,48.0,-100.00,North,-999,-999.0,-999.0,35,-99.99,,,-99.99,,2013-06-14 22:43:00,
2013-06-14 18:53:00,78.0,48.0,-100.00,North,-999,-999.0,-999.0,35,-99.99,,,-99.99,,2013-06-14 22:53:00,
2013-06-14 19:02:00,78.0,48.0,-100.00,North,-999,-999.0,-999.0,34,-99.99,,,-99.99,,2013-06-14 23:02:00,
2013-06-14 19:12:00,78.0,48.0,-100.00,North,-999,-999.0,-999.0,34,-99.99,,,-99.99,,2013-06-14 23:12:00,
2013-06-14 19:22:00,78.0,49.0,-100.00,North,-999,-999.0,-999.0,36,-99.99,,,-99.99,,2013-06-14 23:22:00,
2013-06-14 19:33:00,78.0,49.0,-100.00,North,-999,-999.0,-999.0,36,-99.99,,,-99.99,,2013-06-14 23:33:00,
2013-06-14 19:43:00,78.0,49.0,-100.00,North,-999,-999.0,-999.0,36,-99.99,,,-99.99,,2013-06-14 23:43:00,
2013-06-14 19:52:00,78.0,49.0,-100.00,North,-999,-999.0,-999.0,36,-99.99,,,-99.99,,2013-06-14 23:52:00,
2013-06-14 20:02:00,78.0,49.0,-100.00,North,-999,-999.0,-999.0,36,-99.99,,,-99.99,,2013-06-15 00:02:00,
2013-06-14 20:12:00,78.0,49.0,-100.00,North,-999,-999.0,-999.0,37,-99.99,,,-99.99,,2013-06-15 00:12:00,
2013-06-14 20:23:00,78.0,49.0,-100.00,North,-999,-999.0,-999.0,37,-99.99,,,-99.99,,2013-06-15 00:23:00,
2013-06-14 20:34:00,78.0,49.0,-100.00,North,-999,-999.0,-999.0,37,-99.99,,,-99.99,,2013-06-15 00:34:00,
2013-06-14 20:43:00,77.0,51.0,-100.00,North,-999,-999.0,-999.0,40,-99.99,,,-99.99,,2013-06-15 00:43:00,
2013-06-14 20:53:00,77.0,51.0,-100.00,North,-999,-999.0,-999.0,40,-99.99,,,-99.99,,2013-06-15 00:53:00,
2013-06-14 21:02:00,76.0,51.0,-100.00,North,-999,-999.0,-999.0,41,-99.99,,,-99.99,,2013-06-15 01:02:00,
2013-06-14 21:11:00,76.0,52.0,-100.00,North,-999,-999.0,-999.0,43,-99.99,,,-99.99,,2013-06-15 01:11:00,
2013-06-14 21:22:00,76.0,52.0,-100.00,North,-999,-999.0,-999.0,43,-99.99,,,-99.99,,2013-06-15 01:22:00,
2013-06-14 21:33:00,75.0,52.0,-100.00,North,-999,-999.0,-999.0,44,-99.99,,,-99.99,,2013-06-15 01:33:00,
2013-06-14 21:43:00,75.0,53.0,-100.00,North,-999,-999.0,-999.0,46,-99.99,,,-99.99,,2013-06-15 01:43:00,
2013-06-14 21:54:00,75.0,53.0,-100.00,North,-999,-999.0,-999.0,46,-99.99,,,-99.99,,2013-06-15 01:54:00,
2013-06-14 22:02:00,74.0,53.0,-100.00,North,-999,-999.0,-999.0,47,-99.99,,,-99.99,,2013-06-15 02:02:00,
2013-06-14 22:12:00,74.0,53.0,-100.00,North,-999,-999.0,-999.0,48,-99.99,,,-99.99,,2013-06-15 02:12:00,
2013-06-14 22:23:00,74.0,53.0,-100.00,North,-999,-999.0,-999.0,48,-99.99,,,-99.99,,2013-06-15 02:23:00,
2013-06-14 22:34:00,74.0,53.0,-100.00,North,-999,-999.0,-999.0,48,-99.99,,,-99.99,,2013-06-15 02:34:00,
2013-06-14 22:43:00,73.0,53.0,-100.00,North,-999,-999.0,-999.0,50,-99.99,,,-99.99,,2013-06-15 02:43:00,
2013-06-14 22:53:00,73.0,53.0,-100.00,North,-999,-999.0,-999.0,50,-99.99,,,-99.99,,2013-06-15 02:53:00,
2013-06-14 23:01:00,72.0,53.0,-100.00,North,-999,-999.0,-999.0,51,-99.99,,,-99.99,,2013-06-15 03:01:00,
2013-06-14 23:11:00,72.0,53.0,-100.00,North,-999,-999.0,-999.0,51,-99.99,,,-99.99,,2013-06-15 03:11:00,
2013-06-14 23:24:00,72.0,53.0,-100.00,North,-999,-999.0,-999.0,51,-99.99,,,-99.99,,2013-06-15 03:24:00,
2013-06-14 23:32:00,72.0,53.0,-100.00,North,-999,-999.0,-999.0,52,-99.99,,,-99.99,,2013-06-15 03:32:00,
2013-06-14 23:44:00,72.0,54.0,-100.00,North,-999,-999.0,-999.0,53,-99.99,,,-99.99,,2013-06-15 03:44:00,
2013-06-14 23:52:00,72.0,54.0,-100.00,North,-999,-999.0,-999.0,53,-99.99,,,-99.99,,2013-06-15 03:52:00,